This demonstration page uses our WeatherBlox Daily Observations layout. Learn more.

Left ArrowRight Arrow

44.31136, -96.79839

Hourly Observations for August 12, 2022

Temp ( °F °C ) Dew Point ( °F °C ) Humidity (%) Winds ( mph kmh ) Pressure ( in mb ) Visibility ( mi km ) Precip ( " mm )
12:56 am 00:56 Clear 67 19.4 67 19.4 100 100 SSE 14 22 30.09 1019 10 16 0.00 0.00
1:56 am 01:56 Mostly Clear 67 19.4 67 19.4 100 100 SSE 13 20 30.06 1018 10 16 0.00 0.00
2:20 am 02:20 Mostly Cloudy 66 19 66 19 100 100 SSE 16 26 30.00 1016 10 16 0.00 0.00
2:48 am 02:48 Partly Cloudy 68 20 68 20 100 100 SSE 16 26 29.99 1016 10 16 0.00 0.00
2:56 am 02:56 Mostly Cloudy 68 20 68 20 100 100 SSE 17 28 30.05 1018 10 16 0.00 0.00
3:03 am 03:03 Partly Cloudy 68 20 68 20 100 100 SSE 15 24 29.99 1016 10 16 0.00 0.00
3:56 am 03:56 Mostly Clear 68 20 68 20 100 100 SSE 14 22 30.04 1017 10 16 0.00 0.00
4:56 am 04:56 Clear 68 20 68 20 100 100 SSE 14 22 30.03 1017 10 16 0.00 0.00
5:56 am 05:56 Clear 68 20 68 20 100 100 SSE 10 17 30.04 1017 10 16 0.00 0.00
6:56 am 06:56 Sunny 68 20 66 18.9 93 93 S 12 19 30.04 1017 10 16 0.00 0.00
7:56 am 07:56 Sunny 71 21.7 62 16.7 73 73 S 13 20 30.03 1017 10 16 0.00 0.00
8:56 am 08:56 Sunny 76 24.4 61 16.1 60 60 S 13 20 30.02 1017 10 16 0.00 0.00
9:56 am 09:56 Sunny 78 25.6 61 16.1 56 56 S 13 20 30.01 1016 10 16 0.00 0.00
10:56 am 10:56 Sunny 81 27.2 62 16.7 53 53 S 17 28 30.00 1016 10 16 0.00 0.00
11:56 am 11:56 Sunny 82 27.8 62 16.7 51 51 S 14 22 29.97 1015 10 16 0.00 0.00
12:56 pm 12:56 Sunny 85 29.4 65 18.3 51 51 S 20 31 29.94 1014 10 16 0.00 0.00
1:56 pm 13:56 Sunny 87 30.6 65 18.3 48 48 S 22 35 29.93 1014 10 16 0.00 0.00
2:56 pm 14:56 Sunny 89 31.7 67 19.4 48 48 S 17 28 29.91 1013 10 16 0.00 0.00
3:56 pm 15:56 Sunny 92 33.3 66 18.9 43 43 S 15 24 29.90 1013 10 16 0.00 0.00
4:56 pm 16:56 Sunny 93 33.9 68 20 44 44 S 15 24 29.88 1012 10 16 0.00 0.00
5:56 pm 17:56 Sunny 93 33.9 68 20 44 44 S 13 20 29.87 1011 10 16 0.00 0.00
6:56 pm 18:56 Sunny 91 32.8 72 22.2 54 54 WSW 5 7 29.88 1012 10 16 0.00 0.00
7:56 pm 19:56 Sunny 83 28.3 73 22.8 72 72 NNW 7 11 29.88 1012 10 16 0.00 0.00
8:56 pm 20:56 Clear 76 24.4 71 21.7 85 85 NNW 9 15 29.90 1013 10 16 0.00 0.00
9:56 pm 21:56 Clear 73 22.8 71 21.7 94 94 NW 6 9 29.92 1013 10 16 0.00 0.00
10:56 pm 22:56 Clear 71 21.7 70 21.1 96 96 WNW 5 7 29.93 1014 10 16 0.00 0.00
11:56 pm 23:56 Clear 70 21.1 70 21.1 100 100 NW 8 13 29.94 1014 10 16 0.00 0.00

Powered by AerisWeather